Location: Marcé
(47.5801°N, 0.3280°W)
Time: 08:22:31
(UTC+01:00)

Tiros 1 despin weight - Pass Details

Date: 10 December 2021
Orbit: 592 x 641 km, 48.2° (Epoch: 25 January)

Event Time Altitude Azimuth Distance (km) Brightness Sun altitude
Rises 11:13:21 0° 212° (SSW) 2,858 ? 15.9°
Reaches altitude 10° 11:15:57 10° 200° (SSW) 1,948 ? 16.1°
Maximum altitude 11:19:37 25° 144° (SE) 1,211 ? 16.3°
Drops below altitude 10° 11:23:17 10° 89° (E) 1,935 ? 16.6°
Sets 11:25:51 0° 76° (ENE) 2,834 ? 16.7°
